Regional Weather Roundup
Issued by NWS State College, PA

Home | Current Version | Previous Version | Graphics & Text | Print | Product List | Glossary On
Versions: 1 2 3 4 5 6 7 8 9 10 11 12 13 14 15 16 17 18 19 20 21 22 23 24 25 26 27 28 29 30 31 32 33 34 35 36 37 38 39 40 41 42 43 44 45 46 47 48 49 50
000
ASUS41 KCTP 211303
RWRCTP

REGIONAL WEATHER ROUNDUP
NATIONAL WEATHER SERVICE STATE COLLEGE PA
900 AM EDT TUE OCT 21 2014

Note: "fair" indicates few or no clouds below 12,000 feet with no
significant weather and/or obstructions to visibility.

* = STATION THAT DOES NOT REPORT PRECIPITATION /E.G. RAIN...SNOW...ETC/
    THUNDER OR FOG.

PAZ002>004-007>009-013>016-020>023-029>032-211400-
WESTERN PENNSYLVANIA

CITY           SKY/WX    TMP DP  RH WIND       PRES   REMARKS
ERIE           LGT RAIN  53  46  77 NW6       29.86R
MEADVILLE      LGT RAIN  49  46  90 NW5       29.86R
FRANKLIN*      CLOUDY    48  45  87 W5        29.87R
NEW CASTLE     LGT RAIN  50  49  96 NW8G18    29.88R FOG
BEAVER COUNTY  LGT RAIN  50  48  93 W3        29.86R
BUTLER*        CLOUDY    50  46  87 SW7       29.87S
PITTSBURGH INT CLOUDY    50  49  96 W6        29.87R FOG
PITTSBURGH     CLOUDY    50  46  86 SW7       29.87R FOG
INDIANA*       FOG       50  50 100 W6        29.90S VSB 1/4
LATROBE        CLOUDY    52  52 100 SW6       29.88R
WASHINGTON CO* CLOUDY    50  46  87 W3        29.90R
$$

PAZ004>006-010>012-017>019-024>028-033>037-041-042-045-046-049>053-211400-
CENTRAL PENNSYLVANIA

CITY           SKY/WX    TMP DP  RH WIND       PRES   REMARKS
BRADFORD       CLOUDY    48  46  93 VRB3      29.84R FOG
DUBOIS         CLOUDY    49  48  97 SW7       29.84R
CLEARFIELD     LGT RAIN  49  48  97 SW6       29.86R FOG
JOHNSTOWN      FOG       47  46  97 W8        29.86S VSB 1/2
ALTOONA        CLOUDY    51  48  89 W7        29.87R
STATE COLLEGE  CLOUDY    46  46 100 CALM      29.86R
WILLIAMSPORT   CLOUDY    49  46  90 CALM      29.86R
SELINSGROVE    CLOUDY    52  48  86 CALM      29.87R
FT INDIANTOWN  CLOUDY    52  52 100 NE3       29.88S
CAPITAL CITY   PTSUNNY   52  51  97 CALM      29.88R FOG
HARRISBURG     PTSUNNY   53  50  89 SE3       29.87R FOG
YORK           MOSUNNY   49  49 100 CALM      29.87R FOG
$$

PAZ038>040-043-044-047-048-054-055-060>062-067>071-211400-
EASTERN PENNSYLVANIA

CITY           SKY/WX    TMP DP  RH WIND       PRES   REMARKS
SCRANTON       CLOUDY    54  48  80 N3        29.87R
MOUNT POCONO   FOG       48  46  93 SE6       29.88R VSB<1/4
ALLENTOWN      CLOUDY    52  47  83 E6        29.89R
QUAKERTOWN*    MOSUNNY   50  48  93 CALM      29.89S
READING        MOSUNNY   53  50  89 CALM      29.88R
LANCASTER      PTSUNNY   51  49  92 CALM      29.88R
COATESVILLE    SUNNY     54  48  82 CALM      29.88S
POTTSTOWN      SUNNY     54  49  83 CALM      29.89S
BLUE BELL      SUNNY     54  50  87 CALM      29.87S
DOYLESTOWN     PTSUNNY   49  47  93 CALM      29.88S
WILLOW GROVE   NOT AVBL
NORTH PHILA    SUNNY     53  46  77 E3        29.90S
PHILADELPHIA   MOSUNNY   56  51  84 E3        29.88S
$$



USA.gov is the U.S. government's official web portal to all federal, state and local government web resources and services.